Location: Cisewo
(53.3833°N, 14.9000°E)
Time: 02:09:17
(UTC+00:00)

POLYITAN 1 - Pass Details

Date: 29 September 2021
Orbit: 588 x 611 km, 97.9° (Epoch: 27 October)

Event Time Altitude Azimuth Distance (km) Brightness Sun altitude
Rises 00:34:35 0° 15° (NNE) 2,862 ? -34.7°
Reaches altitude 10° 00:36:47 10° 17° (NNE) 1,950 ? -34.6°
Enters shadow 00:38:04 19° 18° (NNE) 1,433 ? -34.5°
